User: anonymous   Login
Location: Unspecified
(0.0000°N, 0.0000°E)
Time: 09:18:20
(UTC+00:00)
Language:

BEESAT 4 - Orbit

View from above orbital plane
View from above orbital plane
View from above satellite
View from above satellite

Ground track
Ground track

The orbit data is extracted from the following two-line orbital elements,

1 41619U 16040W   21341.10755479  .00003741  00000-0  14462-3 0  9996
2 41619  97.2470  32.2592 0012031  82.4479 277.8127 15.26767064291343
Epoch (UTC): 07 December 2021 02:34:52
Eccentricity: 0.0012031
inclination: 97.2470°
perigee height: 477 km
apogee height: 494 km
right ascension of ascending node: 32.2592°
argument of perigee: 82.4479°
revolutions per day: 15.26767064
mean anomaly at epoch: 277.8127°
orbit number at epoch: 29134

The dashed part of the orbit path shows where the satellite is in the earth's shadow,  

DLR